DW1955 Cutchogue NY US current weather conditions

sailwx.info

Wind from 161

Air temperature 21.1° C

Last reported at 2019-Jun-25 23:33 UTC.
Time now 2019-Jun-27 10:11 UTC

Location: N 41°01' W 072°28'.
View on Google Maps.

See reports from other nearby stations

  
Tides and Currents Weather Stations Pressure Air Temp Water Temp Dewpoint Dewpoint Depression Visibility Wind Speed Wind Dir Waves Ship Positions
date/time (UTC)wind fromknots sea level pressurealtimeterstation pressurevisibilityair tempwater tempwave heightnotes
2019-Jun-25 23:33 161 21.1
2019-Jun-25 23:18 173 20.6
2019-Jun-25 23:03 222 21.1
2019-Jun-25 22:48 101 1 21.1
2019-Jun-25 22:33 130 3 20.6
2019-Jun-25 22:18 146 20.6
2019-Jun-25 22:03 138 21.1
2019-Jun-25 21:48 130 21.1
2019-Jun-25 21:34 112 2 21.1
2019-Jun-25 21:18 136 1 20.6
2019-Jun-25 21:03 271 0 20.6
2019-Jun-25 20:48 159 20.6
2019-Jun-25 20:34 111 20.6
2019-Jun-25 20:18 181 20.6
2019-Jun-25 20:03 128 20.6
2019-Jun-25 19:48 056 1 20.6
2019-Jun-25 19:33 144 20.6
2019-Jun-25 19:18 128 0 20.6
2019-Jun-25 19:03 146 4 21.1
2019-Jun-25 18:48 121 21.1
2019-Jun-25 18:34 119 21.1
2019-Jun-25 18:18 140 21.1
2019-Jun-25 18:03 117 1 21.1
2019-Jun-25 17:48 125 6 21.1
2019-Jun-25 17:34 145 4 21.1
2019-Jun-25 17:18 024 20.6
2019-Jun-25 17:03 103 7 20.6
2019-Jun-25 16:48 145 2 20.6
2019-Jun-25 16:34 157 3 20.6
2019-Jun-25 16:18 169 1 21.1
2019-Jun-25 16:03 197 1 21.1
2019-Jun-25 15:48 140 4 21.1
2019-Jun-25 15:33 150 4 21.1
2019-Jun-25 15:18 123 6 21.1